#timestamp,LO_Frequency,Hit,StdDev 
1699506015.6,286046991.2,N
1699506035.5,286046987.4,Y
1699506055.3,286046994.8,P
1699506075.2,286046996.1,P
1699506095.9,286046998.7,N
1699506115.7,286046992.6,Y
1699506135.6,286046998.0,P
1699506155.4,286046997.2,N
1699506175.3,286046996.1,P
1699506195.1,286046996.2,Y
1699506196.0,286046996.2,P
1699506215.8,286046995.5,P
1699506235.7,286046994.0,P
1699506255.5,286047002.0,N
1699506275.3,286046995.0,N
1699506295.2,286046996.5,N
1699506315.0,286046995.4,N
1699506315.9,286046995.4,N
1699506335.8,286046994.8,N
1699506355.6,286046993.5,Y
1699506375.4,286046996.7,P
1699506395.3,286047002.1,P
1699506415.1,286046997.5,N
1699506435.9,286046995.2,N
1699506455.7,286046993.0,N
1699506475.5,286046992.6,N
1699506495.4,286046994.6,N
1699506515.2,286046990.1,Y
1699506535.1,286046999.8,P
1699506536.0,286046999.8,N
1699506555.8,286046998.8,N
1699506575.6,286047002.1,N
1699506595.5,286047001.5,N
1699506615.3,286047004.4,N
1699506635.1,286047009.7,Y
1699506655.9,286047009.5,P
1699506675.7,286047010.5,N
1699506695.6,286047008.7,N
1699506715.4,286047012.9,Y
1699506735.2,286047008.0,P
1699506755.1,286047008.3,P
1699506756.0,286047008.3,P
1699506775.8,286047006.9,Y
1699506795.7,286046998.6,P
1699506815.5,286047000.6,N
1699506835.3,286046999.8,N
1699506855.2,286046999.9,N
1699506875.0,286046998.1,N
1699506875.9,286046998.1,N
1699506895.7,286046994.7,N
1699506915.6,286046989.8,N
1699506935.4,286046988.5,N
1699506955.3,286046991.2,N
1699506975.1,286046992.2,N
1699506976.0,286046992.2,N
1699506995.8,286046995.6,N
1699507015.7,286046990.7,N
1699507035.5,286046991.2,N
1699507055.3,286046992.7,N
1699507075.2,286046999.0,N
1699507095.0,286046993.7,N
1699507095.9,286046993.7,N
1699507115.8,286046992.4,N
1699507135.6,286046990.4,N
1699507155.4,286046991.6,N
1699507175.3,286046992.9,N
1699507195.1,286046997.8,N
1699507215.8,286046997.3,N
1699507235.7,286047001.9,N
1699507255.5,286047004.0,N
1699507275.4,286047002.3,N
1699507295.2,286046996.6,N
1699507315.0,286047000.9,N
1699507315.9,286047000.9,N
1699507335.8,286047002.2,N
1699507355.6,286047000.2,N
1699507375.5,286047004.0,N
1699507395.3,286047003.9,N
1699507415.1,286047005.3,N
1699507435.9,286047005.7,N
1699507455.7,286047009.8,N
1699507475.5,286047007.8,N
1699507495.4,286047008.1,N
1699507515.2,286047007.1,N
1699507535.1,286047011.0,N
1699507536.0,286047011.0,N
1699507555.8,286047012.4,N
1699507575.6,286047010.9,N
1699507595.5,286047012.5,N
1699507615.3,286047014.9,N
1699507635.1,286047015.5,N
1699507655.9,286047008.5,N
1699507675.7,286047004.8,N
1699507695.6,286047000.8,N
1699507715.4,286046995.8,N
1699507735.2,286046996.8,N
1699507755.1,286046991.7,N
1699507756.0,286046991.7,N
1699507775.8,286046986.3,N
1699507795.6,286046985.6,N
1699507815.5,286046994.6,N
1699507835.3,286046986.3,N
1699507855.2,286046997.8,N
1699507875.9,286047000.2,N
1699507895.7,286046998.2,N
1699507915.6,286046998.3,N
1699507935.4,286047005.3,N
1699507955.2,286047007.0,N
1699507975.1,286047001.5,N
1699507976.0,286047001.5,N
1699507995.8,286047002.6,N
1699508015.7,286046997.9,N
1699508035.5,286046992.2,N
1699508055.3,286046999.6,N
1699508075.2,286046995.1,N
1699508095.0,286046991.9,N
1699508095.9,286046991.9,N
1699508115.7,286046995.0,N
1699508135.6,286046992.5,N
1699508155.4,286046997.5,N
1699508175.3,286047001.1,N
1699508195.1,286047005.6,N
1699508196.0,286047005.6,N
1699508215.8,286047007.5,N
1699508235.7,286047004.9,N
1699508255.5,286047004.9,N
1699508275.3,286047005.3,N
1699508295.2,286047005.2,N
1699508315.0,286047001.7,N
1699508315.9,286047001.7,N
1699508335.8,286047006.0,N
1699508355.6,286047001.5,N
1699508375.4,286047006.7,N
1699508395.3,286047008.6,N
1699508415.1,286047013.9,N
1699508435.9,286047017.7,Y
1699508455.7,286047024.4,P
1699508475.5,286047028.7,N
1699508495.4,286047029.8,N
1699508515.2,286047031.2,N
1699508535.0,286047023.8,N
1699508535.9,286047023.8,N
1699508555.8,286047015.9,N
1699508575.6,286047016.3,N
1699508595.5,286047015.6,N
1699508615.3,286047009.2,N
1699508635.1,286047018.3,N
1699508655.9,286047022.0,N
1699508675.7,286047018.5,N
1699508695.5,286047014.6,N
1699508715.4,286047013.0,N
1699508735.2,286047019.8,N
1699508755.1,286047027.5,Y
1699508756.0,286047027.5,P
1699508775.8,286047011.9,N
1699508795.6,286047008.3,N
1699508815.5,286047003.8,N
1699508835.3,286046998.1,N
1699508855.2,286046996.2,N
1699508875.9,286046992.8,N
1699508895.7,286046994.3,N
1699508915.6,286046993.8,N
1699508935.4,286046996.8,N
1699508955.3,286047001.0,N
1699508975.1,286046996.7,N
1699508976.0,286046996.7,N
1699508995.8,286047001.7,N
1699509015.7,286047008.1,N
1699509035.5,286047008.0,N
1699509055.3,286047008.1,N
1699509075.2,286047012.4,N
1699509095.0,286047010.6,N
1699509095.9,286047010.6,N
1699509115.8,286047006.3,N
1699509135.6,286047000.2,N
1699509155.4,286046996.9,N
1699509175.3,286046998.7,N
1699509195.1,286046998.5,N
1699509215.8,286046999.9,N
1699509235.7,286046998.0,N
1699509255.5,286046992.4,N
1699509275.4,286046992.2,N
1699509295.2,286046988.7,N
1699509315.0,286046992.7,N
1699509315.9,286046992.7,N
1699509335.8,286047000.7,N
1699509355.6,286047006.7,N
1699509375.4,286047014.7,N
1699509395.3,286047020.2,N
1699509415.1,286047017.9,N
1699509435.9,286047016.3,N
1699509455.7,286047012.5,N
1699509475.5,286047012.3,N
1699509495.4,286047010.0,N
1699509515.2,286047001.5,N
1699509535.0,286047000.3,N
1699509536.0,286047000.3,N
1699509555.8,286046995.4,N
1699509575.6,286046993.4,N
1699509595.5,286046995.1,N
